• In Netherlands
  • List of Countries
  • For 7 days
  • Water Temperature
  • Satellite Maps
  • Weather Map
  • Weather Widgets
  • user-avatar
    Login

    Hourly Weather Baranovichi

    Today, 28 July, Friday

    Time Temperature Precipitation Wind Pressure Humidity
    00:00 +18°C° 0 mm 1 mps 739 mmHg 85%
    01:00 +18°C° 0 mm 1 mps 740 mmHg 86%
    02:00 +16°C° 0 mm 1 mps 740 mmHg 87%
    03:00 +16°C° 0 mm 1 mps 740 mmHg 87%
    04:00 +16°C° 0 mm 1 mps 740 mmHg 87%
    05:00 +16°C° 0 mm 1 mps 740 mmHg 88%
    06:00 +18°C° 0 mm 1 mps 740 mmHg 83%
    07:00 +20°C° 0 mm 1 mps 740 mmHg 77%
    08:00 +22°C° 0 mm 1 mps 740 mmHg 72%
    09:00 +23°C° 0.1 mm 1 mps 740 mmHg 67%
    10:00 +24°C° 0.1 mm 1 mps 740 mmHg 61%
    11:00 +26°C° 0.1 mm 2 mps 740 mmHg 56%
    12:00 +26°C° 0.1 mm 2 mps 740 mmHg 56%
    13:00 +26°C° 0.1 mm 2 mps 740 mmHg 56%
    14:00 +26°C° 0.1 mm 2 mps 740 mmHg 56%
    15:00 +26°C° 0.4 mm 2 mps 740 mmHg 60%
    16:00 +25°C° 0.4 mm 2 mps 740 mmHg 64%
    17:00 +25°C° 0.4 mm 2 mps 740 mmHg 68%
    18:00 +23°C° 0.4 mm 2 mps 740 mmHg 74%
    19:00 +21°C° 0.4 mm 2 mps 740 mmHg 81%
    20:00 +19°C° 0.4 mm 2 mps 740 mmHg 87%
    21:00 +18°C° 0 mm 2 mps 740 mmHg 89%
    22:00 +17°C° 0 mm 2 mps 740 mmHg 91%
    23:00 +16°C° 0 mm 2 mps 740 mmHg 93%

    Tomorrow, 29 July, Saturday

    Time Temperature Precipitation Wind Pressure Humidity
    00:00 +16°C° 0 mm 2 mps 740 mmHg 93%
    01:00 +16°C° 0 mm 3 mps 740 mmHg 94%
    02:00 +16°C° 0 mm 3 mps 740 mmHg 95%
    03:00 +16°C° 0 mm 3 mps 740 mmHg 95%
    04:00 +16°C° 0 mm 3 mps 741 mmHg 95%
    05:00 +14°C° 0 mm 3 mps 741 mmHg 96%
    06:00 +15°C° 0 mm 4 mps 741 mmHg 93%
    07:00 +17°C° 0 mm 4 mps 742 mmHg 89%
    08:00 +17°C° 0 mm 5 mps 742 mmHg 86%
    09:00 +19°C° 0 mm 5 mps 742 mmHg 79%
    10:00 +20°C° 0 mm 6 mps 743 mmHg 71%
    11:00 +21°C° 0 mm 6 mps 743 mmHg 64%
    12:00 +22°C° 0 mm 6 mps 743 mmHg 61%
    13:00 +22°C° 0 mm 6 mps 743 mmHg 59%
    14:00 +23°C° 0 mm 6 mps 743 mmHg 57%
    15:00 +23°C° 0 mm 6 mps 744 mmHg 59%
    16:00 +23°C° 0 mm 5 mps 744 mmHg 61%
    17:00 +23°C° 0 mm 5 mps 744 mmHg 63%
    18:00 +21°C° 0 mm 4 mps 744 mmHg 69%
    19:00 +20°C° 0 mm 4 mps 745 mmHg 75%
    20:00 +18°C° 0 mm 3 mps 745 mmHg 82%
    21:00 +17°C° 0 mm 3 mps 745 mmHg 85%
    22:00 +17°C° 0 mm 3 mps 746 mmHg 88%
    23:00 +16°C° 0 mm 2 mps 746 mmHg 91%

    Day after tomorrow, 30 July, Sunday

    Time Temperature Precipitation Wind Pressure Humidity
    00:00 +15°C° 0 mm 2 mps 746 mmHg 91%
    01:00 +15°C° 0 mm 2 mps 746 mmHg 92%
    02:00 +15°C° 0 mm 2 mps 746 mmHg 92%
    03:00 +15°C° 0 mm 2 mps 747 mmHg 92%
    04:00 +14°C° 0 mm 2 mps 747 mmHg 92%
    05:00 +14°C° 0 mm 2 mps 747 mmHg 92%
    06:00 +16°C° 0 mm 2 mps 747 mmHg 87%
    07:00 +18°C° 0 mm 2 mps 747 mmHg 82%
    08:00 +20°C° 0 mm 2 mps 747 mmHg 76%
    09:00 +21°C° 0.1 mm 3 mps 747 mmHg 73%
    10:00 +24°C° 0.1 mm 3 mps 748 mmHg 69%
    11:00 +25°C° 0.1 mm 3 mps 748 mmHg 65%
    12:00 +26°C° 0.2 mm 3 mps 747 mmHg 64%
    13:00 +26°C° 0.2 mm 3 mps 747 mmHg 63%
    14:00 +27°C° 0.2 mm 3 mps 747 mmHg 62%
    15:00 +27°C° 0.1 mm 3 mps 747 mmHg 63%
    16:00 +27°C° 0.1 mm 3 mps 747 mmHg 64%
    17:00 +27°C° 0.1 mm 3 mps 747 mmHg 65%
    18:00 +25°C° 0 mm 2 mps 747 mmHg 71%
    19:00 +24°C° 0 mm 1 mps 747 mmHg 76%
    20:00 +22°C° 0 mm 1 mps 747 mmHg 82%
    21:00 +22°C° 0 mm 1 mps 747 mmHg 84%
    22:00 +21°C° 0 mm 1 mps 747 mmHg 85%
    23:00 +20°C° 0 mm 2 mps 747 mmHg 87%

    31 July, Monday

    Time Temperature Precipitation Wind Pressure Humidity
    00:00 +19°C° 0 mm 2 mps 747 mmHg 88%
    01:00 +19°C° 0 mm 2 mps 747 mmHg 88%
    02:00 +19°C° 0 mm 2 mps 747 mmHg 89%
    03:00 +18°C° 0 mm 2 mps 747 mmHg 89%
    04:00 +18°C° 0 mm 2 mps 747 mmHg 89%
    05:00 +18°C° 0 mm 2 mps 747 mmHg 89%
    06:00 +20°C° 0 mm 3 mps 747 mmHg 85%
    07:00 +21°C° 0 mm 3 mps 747 mmHg 80%
    08:00 +23°C° 0 mm 4 mps 747 mmHg 76%
    09:00 +25°C° 0 mm 4 mps 747 mmHg 72%
    10:00 +27°C° 0 mm 4 mps 747 mmHg 68%
    11:00 +29°C° 0 mm 5 mps 747 mmHg 63%
    12:00 +29°C° 0.1 mm 5 mps 747 mmHg 61%
    13:00 +30°C° 0.1 mm 5 mps 747 mmHg 58%
    14:00 +32°C° 0.1 mm 5 mps 747 mmHg 56%
    15:00 +32°C° 0.4 mm 4 mps 747 mmHg 59%
    16:00 +32°C° 0.4 mm 4 mps 747 mmHg 63%
    17:00 +30°C° 0.4 mm 3 mps 747 mmHg 66%
    18:00 +29°C° 0 mm 2 mps 748 mmHg 71%
    19:00 +27°C° 0 mm 2 mps 748 mmHg 76%
    20:00 +26°C° 0 mm 1 mps 748 mmHg 81%
    21:00 +25°C° 0 mm 1 mps 748 mmHg 83%
    22:00 +24°C° 0 mm 1 mps 749 mmHg 85%
    23:00 +23°C° 0 mm 1 mps 749 mmHg 88%

    1 August, Tuesday

    Time Temperature Precipitation Wind Pressure Humidity
    00:00 +23°C° 0 mm 1 mps 749 mmHg 89%
    01:00 +22°C° 0 mm 1 mps 749 mmHg 90%
    02:00 +22°C° 0 mm 1 mps 750 mmHg 90%
    03:00 +22°C° 0 mm 1 mps 750 mmHg 91%
    04:00 +21°C° 0 mm 1 mps 750 mmHg 91%
    05:00 +21°C° 0 mm 1 mps 750 mmHg 91%
    06:00 +23°C° 0 mm 1 mps 751 mmHg 87%
    07:00 +25°C° 0 mm 1 mps 751 mmHg 82%
    08:00 +26°C° 0 mm 1 mps 751 mmHg 77%
    09:00 +28°C° 0 mm 1 mps 751 mmHg 71%
    10:00 +29°C° 0 mm 1 mps 751 mmHg 66%
    11:00 +31°C° 0 mm 1 mps 751 mmHg 60%
    12:00 +32°C° 0 mm 1 mps 751 mmHg 56%
    13:00 +32°C° 0 mm 1 mps 751 mmHg 52%
    14:00 +33°C° 0 mm 1 mps 751 mmHg 48%
    15:00 +33°C° 0 mm 1 mps 751 mmHg 50%
    16:00 +34°C° 0 mm 2 mps 750 mmHg 52%
    17:00 +34°C° 0 mm 2 mps 750 mmHg 54%
    18:00 +31°C° 0 mm 2 mps 750 mmHg 60%
    19:00 +29°C° 0 mm 2 mps 750 mmHg 66%
    20:00 +27°C° 0 mm 2 mps 749 mmHg 72%
    21:00 +26°C° 0.1 mm 3 mps 749 mmHg 72%
    22:00 +25°C° 0.1 mm 3 mps 749 mmHg 72%
    23:00 +25°C° 0.1 mm 3 mps 749 mmHg 72%

    2 August, Wednesday

    Time Temperature Precipitation Wind Pressure Humidity
    00:00 +24°C° 0.1 mm 3 mps 749 mmHg 73%
    01:00 +24°C° 0.1 mm 3 mps 749 mmHg 75%
    02:00 +24°C° 0.1 mm 3 mps 749 mmHg 77%
    03:00 +22°C° 0.1 mm 3 mps 748 mmHg 78%
    04:00 +22°C° 0.1 mm 3 mps 748 mmHg 79%
    05:00 +22°C° 0.1 mm 3 mps 748 mmHg 79%
    06:00 +24°C° 0.1 mm 3 mps 748 mmHg 77%
    07:00 +25°C° 0.1 mm 4 mps 748 mmHg 74%
    08:00 +26°C° 0.1 mm 4 mps 748 mmHg 71%
    09:00 +28°C° 0 mm 4 mps 748 mmHg 68%
    10:00 +29°C° 0 mm 4 mps 748 mmHg 65%
    11:00 +32°C° 0 mm 4 mps 748 mmHg 61%
    12:00 +32°C° 0 mm 4 mps 748 mmHg 62%
    13:00 +33°C° 0 mm 4 mps 748 mmHg 62%
    14:00 +33°C° 0 mm 4 mps 748 mmHg 62%
    15:00 +32°C° 0.1 mm 4 mps 748 mmHg 64%
    16:00 +32°C° 0.1 mm 4 mps 748 mmHg 66%
    17:00 +30°C° 0.1 mm 4 mps 748 mmHg 68%
    18:00 +28°C° 0 mm 4 mps 749 mmHg 73%
    19:00 +27°C° 0 mm 3 mps 749 mmHg 78%
    20:00 +25°C° 0 mm 3 mps 749 mmHg 84%
    21:00 +24°C° 0 mm 3 mps 750 mmHg 86%
    22:00 +21°C° 0 mm 3 mps 750 mmHg 88%
    23:00 +20°C° 0 mm 3 mps 750 mmHg 91%
    Show more